EW3317 Weather Reports


time (UTC)temp
C
wind
direction
speed
KPH
gust
KPH
rain 1hr
cm
rain 24hr
cm
rain mn
cm
humidity
%
barometer
mb
20260504081518 10 359 12.9 19.3 0.00 0.00 0.00 43 1007.2
20260504044553 9 4 0.0 8.0 0.00 0.00 0.00 48 1008.4
20260504043110 9 354 6.4 12.9 0.00 0.00 0.00 49 1008.4
20260504041550 9 341 0.0 0.0 0.00 0.00 0.00 50 1008.5
20260504040050 9 341 0.0 0.0 0.00 0.00 0.00 49 1008.5
20260504034553 10 341 0.0 0.0 0.00 0.00 0.00 48 1008.5
20260504033052 10 341 0.0 6.4 0.00 0.00 0.00 49 1008.4
20260504031553 10 314 0.0 6.4 0.00 0.00 0.00 48 1008.3
20260504024548 12 256 0.0 0.0 0.00 0.00 0.00 46 1008.2
20260504023047 12 253 4.8 8.0 0.00 0.00 0.00 43 1008.1
20260504021549 13 109 0.0 0.0 0.00 0.00 0.00 42 1008.1
20260504020052 13 109 0.0 0.0 0.00 0.00 0.00 42 1008.0
20260504014545 15 109 0.0 0.0 0.00 0.00 0.00 40 1008.1
20260504013051 15 109 0.0 0.0 0.00 0.00 0.00 37 1008.2
20260504011544 16 85 0.0 1.6 0.00 0.00 0.00 35 1008.2
20260504010053 16 81 0.0 14.5 0.00 0.00 0.00 36 1008.3
20260504004546 16 118 8.0 14.5 0.00 0.00 0.00 34 1008.3
20260504003043 17 102 3.2 11.3 0.00 0.00 0.00 34 1008.4
20260504001541 17 110 1.6 12.9 0.00 0.00 0.00 34 1008.4
20260504000038 17 130 0.0 11.3 0.00 0.00 0.00 33 1008.6
20260503234541 17 134 4.8 12.9 0.00 0.00 0.00 33 1008.7
20260503233037 17 131 3.2 17.7 0.00 0.00 0.00 34 1008.8
20260503231536 17 108 0.0 11.3 0.00 0.00 0.00 34 1008.9
20260503230050 17 134 12.9 19.3 0.00 0.00 0.00 35 1009.0
20260503224535 17 140 8.0 14.5 0.00 0.00 0.00 36 1008.9
20260503223034 17 35 0.0 12.9 0.00 0.00 0.00 36 1009.3
20260503221535 17 102 4.8 14.5 0.00 0.00 0.00 37 1009.4
20260503220036 17 101 1.6 17.7 0.00 0.00 0.00 35 1009.4
20260503214545 16 114 3.2 16.1 0.00 0.00 0.00 37 1009.7
20260503213033 16 87 4.8 16.1 0.00 0.00 0.00 39 1009.9
20260503211528 16 116 1.6 19.3 0.00 0.00 0.00 38 1010.1
20260503210027 16 109 8.0 17.7 0.00 0.00 0.00 41 1010.1
20260503204530 16 101 8.0 25.7 0.00 0.00 0.00 42 1010.4
20260503203026 16 70 8.0 24.1 0.00 0.00 0.00 43 1010.4
20260503201526 16 104 4.8 19.3 0.00 0.00 0.00 44 1010.3
20260503200024 16 67 9.7 16.1 0.00 0.00 0.00 42 1010.6
20260503194523 16 102 12.9 19.3 0.00 0.00 0.00 41 1010.7
20260503193022 18 41 11.3 19.3 0.00 0.00 0.00 34 1011.0
20260503191521 18 335 9.7 25.7 0.00 0.00 0.00 33 1010.9
20260503190026 18 32 9.7 30.6 0.00 0.00 0.00 29 1010.8
20260503184518 17 51 3.2 19.3 0.00 0.00 0.00 31 1011.0
20260503183014 17 89 6.4 20.9 0.00 0.00 0.00 39 1011.2
20260503181531 17 48 11.3 22.5 0.00 0.00 0.00 38 1011.4
20260503180024 17 339 9.7 33.8 0.00 0.00 0.00 29 1011.2
20260503174508 17 4 3.2 12.9 0.00 0.00 0.00 32 1011.5
20260503173005 16 141 6.4 20.9 0.00 0.00 0.00 39 1011.9
20260503171502 16 89 0.0 6.4 0.00 0.00 0.00 41 1012.0
20260503170113 15 118 3.2 11.3 0.00 0.00 0.00 41 1012.2
20260503120110 5 4 0.0 4.8 0.00 0.00 0.00 69 1014.0